This is the latest recevied weather packets stored in our database for station/object KM4CBK. If no packets are shown the sender has not sent any weather packets the latest 10 day(s).
| Time | Temp. | Humidity | Pressure | Rain* | Wind** | Luminosity | Snow |
|---|---|---|---|---|---|---|---|
| 1778078819 | 23.89° C | 86% | 1014.6 hPa | 0 mm | - | 218 W/m² | - |
| 1778078515 | 23.89° C | 87% | 1014.7 hPa | 0 mm | - | 221 W/m² | - |
| 1778078213 | 23.33° C | 88% | 1014.7 hPa | 0 mm | - | 218 W/m² | - |
| 1778077911 | 23.33° C | 88% | 1014.6 hPa | 0 mm | - | 188 W/m² | - |
| 1778077609 | 23.33° C | 87% | 1014.8 hPa | 0 mm | - | 190 W/m² | - |
| 1778077307 | 23.33° C | 88% | 1014.9 hPa | 0 mm | - | 184 W/m² | - |
| 1778077004 | 22.78° C | 90% | 1014.5 hPa | 0 mm | - | 262 W/m² | - |
| 1778076702 | 22.22° C | 90% | 1014.7 hPa | 0 mm | - | 122 W/m² | - |
| 1778076399 | 22.22° C | 91% | 1014.6 hPa | 0 mm | - | 100 W/m² | - |
| 1778076097 | 22.22° C | 91% | 1014.5 hPa | 0 mm | - | 86 W/m² | - |
| 1778075794 | 22.22° C | 90% | 1014.5 hPa | 0 mm | - | 76 W/m² | - |
| 1778075490 | 22.22° C | 90% | 1014.6 hPa | 0 mm | - | 70 W/m² | - |
| 1778075186 | 22.22° C | 91% | 1014.5 hPa | 0 mm | - | 138 W/m² | - |
| 1778074882 | 21.67° C | 90% | 1014.4 hPa | 0 mm | - | 104 W/m² | - |
| 1778074580 | 22.22° C | 91% | 1014.5 hPa | 0 mm | - | 130 W/m² | - |
| 1778074276 | 21.67° C | 92% | 1014.5 hPa | 0 mm | - | 141 W/m² | - |
| 1778073974 | 21.11° C | 93% | 1014.6 hPa | 0 mm | - | 133 W/m² | - |
| 1778073671 | 21.11° C | 93% | 1014.3 hPa | 0 mm | - | 78 W/m² | - |
| 1778073368 | 21.11° C | 93% | 1014.5 hPa | 0 mm | - | 56 W/m² | - |
| 1778073064 | 21.11° C | 93% | 1014.4 hPa | 0 mm | - | 98 W/m² | - |
| 1778072761 | 20.56° C | 94% | 1014.3 hPa | 0 mm | - | 93 W/m² | - |
| 1778072459 | 20.56° C | 95% | 1014.3 hPa | 0 mm | - | 89 W/m² | - |
| 1778072157 | 20.56° C | 96% | 1014.4 hPa | 0 mm | - | 49 W/m² | - |
| 1778071854 | 20.56° C | 96% | 1014.3 hPa | 0 mm | - | 49 W/m² | - |
| 1778071552 | 20.56° C | 96% | 1014.3 hPa | 0 mm | - | 24 W/m² | - |
* Rain latest hour (hover to see other rain measurements)
** Current wind speed in m/s (hover to see current wind gust speed)